Погода в Кудымкаре

Погода в Кудымкаре : погода сейчас, прогноз погоды и архив. Всё, что Вы хотите узнать о погоде в Кудымкаре!

Хотите узнать прогноз погоды в Кудымкаре? Тогда Вам сюда: Погода в Кудымкаре

Поиск расширенной информации на нашем сайте:

Полезная информация: Роспись эбру турция. Турецкая керамика турция ebrussia.com.

Другие новости

Новости СМИ2

Главная страница сайта

Новости сайта

03.07.2017

Напоминаем, что на нашем специализированном сайте Метеоцентр.Азия вы можете получить высокодетализированные автоматические прогнозы погоды по пунктам России, СНГ и мира в авиационном формате (включающие направление и скорость ветра, видимость, явления погоды, количество и форму облачности, нижнюю и верхнюю границу облачности).

Рекомендуем: Все страницы Hypernova.ru/sitemap

Погода в Кудымкаре - сегодня

Время (UTC), дата Ветер
(°,м/с) 
Видим.   Явления Облачность Т
(°С)
Тd
(°С)
f(%) Тe
(°С)
Pmin
(гПа)
dP
(гПа)
Po
(мм)
O2
(г/м3)
Тmin Tmax R s Состояние
почвы
09 08.12.17 160 (Ю) 20000 м  в посл. час снег  9/4 300 м средняя 
[Sc|Ac As]
-4.7 -5.8 92 -6  1011.9  0.6  741  305           
12 08.12.17 170 (Ю) 4000 м  слаб. снег  9/9 300 м 
[Sc]
-5.3 -6 95 -5  1013.3  1.3  742  306           
15 08.12.17 260 (З) 20000 м  {снег}  10/10 300 м 
[Sc]
-6 -6.6 95 -6  1014.2  1.3  743  307    -4.6  0.2     
18 08.12.17 340 (С) 4000 м  слаб. снег  10/10 300 м 
[Sc]
-6.1 -7.4 90 -6  1015.1  0.9  743  307           
21 08.12.17 290 (З) 20000 м  {снег}  10/10 300 м 
[Sc]
-6.7 -8.6 86 -8  1016  0.8  744  308           
00 09.12.17 320 (СЗ) 4000 м  слаб. снег  10/10 300 м 
[Sc]
-7.1 -8.8 88 -9  1016.5  0.4  744  309           
03 09.12.17 340 (С) 4000 м  слаб. снег  10/10 300 м 
[Sc]
-7.4 -9.8 83 -9  1017.2  0.6  745  309  -7.5    0.0  15  равномерный
сухой снег
100% 
06 09.12.17 320 (СЗ) 4000 м  слаб. снег  10/10 300 м 
[Frnb|Ns]
-8.7 -10 90 -12  1017.5  0.2  745  311  -8.7         
09 09.12.17 330 (СЗ) 20000 м  {снег}  4/3 300 м средняя 
[Sc|As trans]
-10.5 -11.8 90 -14  1018.1  0.4  745  313           
12 09.12.17 320 (СЗ) 20000 м  {снег}  10/10 300 м 
[Sc]
-11.2 -12 94 -14  1018.5  0.3  746  314           
15 09.12.17 330 (СЗ) 20000 м    10/10 300 м 
[Sc]
-11.7 -12.6 93 -15  1019.1  0.6  746  315    -7.4  0.0     
18 09.12.17 320 (СЗ) 4000 м  слаб. снег  10/10 300 м 
[Frnb|Ns]
-13.1 -14.2 91 -17  1019.8  0.6  746  317           
21 09.12.17 320 (СЗ) 20000 м  {снег}  ясно 
-16.4 -17.8 89 -19  1020.7  0.5  747  322           
00 10.12.17 330 (СЗ) 20000 м  {снег}  ясно 
-16.7 -18.1 89 -19  1021.8  748  322           
03 10.12.17 320 (СЗ) 20000 м    ясно 
-17.5 -19 88 -18  1023.3  1.3  749  324  -17.6    0.2  15  равномерный
сухой снег
100% 
06 10.12.17 320 (СЗ) 20000 м  {снег}  6/3 600 м верхняя 
[Sc|Cs]
-18.7 -20.4 86 -19  1024.7  1.2  750  326  -18.9         
09 10.12.17 310 (СЗ) 20000 м  ледяные иглы{снег}  8/4 600 м верхняя 
[Sc|Cs]
-17.5 -19.1 87 -20  1025.5  0.9  750  325           
12 10.12.17 тихо ()   20000 м  {снег}  8/5 600 м средняя, верхняя 
[Sc|As op|Cs]
-18.8 -20.5 86 -19  1026.8  1.2  751  327           
15 10.12.17 320 (СЗ) 20000 м    ясно 
-20.8 -22.8 84 -21  1028.4  1.4  752  330    -16.8  0.0     
18 10.12.17 тихо ()   4000 м  слаб. снег  10/10 2000 м 
[Ns]
-20.4 -22.4 84 -20  1029.2  0.8  753  329           
21 10.12.17 тихо ()   4000 м  слаб. снег  10/10 2000 м 
[Ns]
-19.8 -21.7 85 -20  1030.2  754  329           
00 11.12.17 320 (СЗ) 4000 м  слаб. снег  10/10 2000 м 
[Ns]
-20.1 -22 85 -20  1031.2  0.9  754  330           
03 11.12.17 тихо ()   4000 м  слаб. снег  10/10 2000 м 
[Ns]
-20.1 -22 85 -20  1031.6  0.9  755  330  -21.9    0.0  15  равномерный
сухой снег
100% 
06 11.12.17 тихо ()   4000 м  снег  10/8 300 м средняя 
[Frnb|As op]
-19.9 -21.8 85 -20  1033.1  1.4  756  330           
09 11.12.17 180 (Ю) 20000 м  {снег}  10/8 2000 м средняя, верхняя 
[Ac As|Cs]
-18.8 -20.6 86 -19  1032.9  0.1  756  329           
Время (UTC), дата Ветер
(°,м/с) 
Видим.   Явления Облачность Т
(°С)
Тd
(°С)
f(%) Тe
(°С)
Pmin
(гПа)
dP
(гПа)
Po
(мм)
O2
(г/м3)
Тmin Tmax R s Состояние
почвы

Для получения пояснительной информации подведите курсор к названию столбца.

ПОГОДА в Кудымкаре - архив

Всё, что Вы хотите узнать о погоде в Кудымкаре - удобно и подробно!

Выберите нужную дату (начиная с 1 января 2015* года) и нажмите кнопку "Найти".
Будут отображены архивные сводки погоды по пункту Кудымкар, начиная с указанной даты.


Отображать данные в формате CSV (для использования в таблицах Excel)


Внимание! Наш архив погоды предназначен исключительно для личного некоммерческого использования в познавательных целях. Если Вам необходимы официальные справки о состоянии погоды (для производственных, юридических, коммерческих и т.п. целей), обращайтесь в органы Росгидромета.

*Примечание: данная дата относится к архиву по метеостанциям СССР (Россия, СНГ, Балтия).
Архив по метеостанциям Зарубежной Европы и Азии (кроме Китая) хранится 10 дней, по другим регионам земного шара (Китай, Африка, Америка, Австралия, Океания) - 1 день.

Кудымкар - район местоположения метеостанции


Название, широта, долгота, высота метеостанции:
Кудымкар 59°ш. 54.6°д. 186 м над ур. моря [Российская Федерация]

Дополнительная информация

В oтличие oт бoльшинства пoгoдных сайтoв мы публикуем пoдрoбную метеoинфoрмацию в детальнoм прoфессиoнальнoм фoрмате.

Характеристики температуры и влажнoсти вoздуха измеряются на высoте 2 м в тени вдали oт зданий и деревьев.
Скoрoсть ветра измеряется на высoте 10 м (на урoвне рoста челoвека скoрoсть ветра ниже в 1.5-2 раза). Если метеoстанция нахoдится в гoрoде или в лесу, тo скoрoсть ветра занижена на 2-4 м/с пo сравнению с oткрытым местoм. Скoрoсть ветра над акватoриями крупных рек и oзёр, а также на вершинах хoлмoв на 2-5 м/с выше, чем в oбычных услoвиях.
Атмoсфернoе давление в разных тoчках местнoсти мoжет значительнo oтличаться oт давления на метеoстанции, в зависимoсти oт услoвий рельефа (при пoдъёме на 10 м давление пoнижается примернo на 1 мм рт.ст.).